パンスターズ彗星

P/2018 A5 ( PanSTARRS )

English version
Home page
Updated on March 1, 2018

---------------------------------------------------------------------

・ プロフィール

発見日 2018年1月13日
発見光度 21.4等
発見者 Pan-STARRS 1 telescope (Haleakala)

・ 軌道要素

Epoch 2017 Sept. 4.0 TT = JDT 2458000.5
T 2017 Sept. 23.83141 TT                                MPCW
q   2.6938279            (2000.0)            P               Q
n   0.07340554     Peri.  359.68206     +0.04295812     -0.91564718
a   5.6491552      Node    87.82932     +0.91751571     -0.12215834
e   0.5231450      Incl.   23.57617     +0.39537265     +0.38297204
P  13.43
From 34 observations 2017 Nov. 21-2018 Jan. 20, mean residual 0".3.

・ 光度変化

        m1 = 15.0 + 5 logΔ + 10.0 log r

---------------------------------------------------------------------

軌道要素はM.P.E.C. 2018-D91に掲載されたものです。
光度グラフはComet for Windowsで作成したものです。

---------------------------------------------------------------------

Copyright(C) Seiichi Yoshida (comet@aerith.net). All rights reserved.